Location: Bergheim
(50.9593°N, 6.6400°E)
Time: 11:22:55
(UTC+01:00)

ISS - Pass Details

Date: 05 December 2023
Orbit: 414 x 422 km, 51.6° (Epoch: 26 February)

Event Time Altitude Azimuth Distance (km) Brightness Sun altitude
Rises 18:01:52 0° 282° (WNW) 2,414 1.2 -13.9°
Reaches altitude 10° 18:04:27 10° 263° (W) 1,549 0.5 -14.3°
Maximum altitude 18:06:51 18° 219° (SW) 1,164 -0.7 -14.6°
Drops below altitude 10° 18:09:15 10° 175° (S) 1,552 -0.7 -15.0°
Enters shadow 18:13:51 -6° 149° (SSE) 3,181 0.6 -15.7°
